Location: Newark
(15.4608°S, 41.1635°W)
Time: 12:01:49
(UTC+00:00)

Courier 1B Rocket - Visible Passes

Search period start: 07 March 2021 00:00
Search period end: 17 March 2021 00:00
Orbit: 920 x 1202 km, 28.2° (Epoch: 06 March)

Date Brightness Start Highest point End Pass type
(mag) Time Alt. Az. Time Alt. Az. Time Alt. Az.
07 Mar 6.5 06:28:29 26° S 06:28:54 26° S 06:34:15 10° SE visible
07 Mar 6.1 08:17:23 10° SW 08:23:23 38° SSE 08:29:10 10° E visible
08 Mar 7.3 05:31:19 17° SE 05:31:19 17° SE 05:33:00 10° SE visible
08 Mar 6.3 07:17:41 16° SW 07:22:03 31° S 07:27:40 10° ESE visible
08 Mar 7.0 22:39:15 10° N 22:42:12 16° NNE 22:42:12 16° NNE visible
09 Mar 6.4 06:20:35 28° S 06:20:38 28° S 06:26:11 10° ESE visible
09 Mar 5.7 08:08:32 10° SW 08:14:56 50° SSE 08:21:02 10° E visible
09 Mar 7.0 23:29:12 10° NW 23:31:50 21° NNW 23:31:50 21° NNW visible
10 Mar 7.5 05:23:31 15° SE 05:23:31 15° SE 05:24:46 10° ESE visible
10 Mar 6.0 07:09:54 22° SW 07:13:41 39° SSE 07:19:39 10° E visible
10 Mar 6.4 22:28:49 10° NNW 22:35:02 26° NNE 22:35:06 26° NNE visible
11 Mar 7.7 00:20:54 10° WNW 00:21:31 13° WNW 00:21:31 13° WNW visible
11 Mar 6.3 06:12:54 33° SSE 06:12:54 33° SSE 06:18:11 10° ESE visible
11 Mar 5.2 07:59:41 10° WSW 08:06:24 71° SSE 08:12:42 10° ENE visible
11 Mar 6.9 21:29:03 10° N 21:33:44 17° NNE 21:38:22 10° ENE visible
11 Mar 6.2 23:19:48 10° NW 23:24:47 39° NNW 23:24:47 39° NNW visible
12 Mar 7.6 05:15:57 13° ESE 05:15:57 13° ESE 05:16:41 10° ESE visible
12 Mar 5.6 07:02:21 32° SW 07:05:13 52° SSE 07:11:31 10° E visible
12 Mar 5.9 22:19:03 10° NW 22:26:08 39° NNE 22:28:03 34° ENE visible
13 Mar 7.2 00:12:04 10° WNW 00:14:27 22° WNW 00:14:27 22° WNW visible
13 Mar 6.3 06:05:28 36° SE 06:05:28 36° SE 06:10:09 10° E visible
13 Mar 5.0 07:51:52 14° WSW 07:57:45 80° NNW 08:04:09 10° ENE visible
13 Mar 6.5 21:18:43 10° NNW 21:24:52 26° NNE 21:31:09 10° E visible
13 Mar 5.4 23:10:44 10° WNW 23:17:42 71° NNW 23:17:42 71° NNW visible
14 Mar 7.8 05:08:39 10° ESE 05:08:39 10° ESE 05:08:40 10° ESE visible
14 Mar 5.1 06:55:03 54° SW 06:56:38 73° SSE 07:03:10 10° ENE visible
14 Mar 5.5 22:09:43 10° NW 22:17:14 57° NNE 22:20:54 32° E visible
15 Mar 6.9 00:03:30 10° W 00:07:18 31° W 00:07:18 31° W visible
15 Mar 6.5 05:58:16 33° E 05:58:16 33° E 06:01:59 10° E visible
15 Mar 5.2 07:44:41 22° W 07:49:01 54° NNW 07:55:17 10° NE visible
15 Mar 6.0 21:09:02 10° NW 21:15:58 39° NNE 21:23:08 10° E visible
15 Mar 5.4 23:01:58 10° WNW 23:09:45 77° SSW 23:10:27 71° SSE visible
16 Mar 4.9 06:47:56 79° NNW 06:47:58 79° NNW 06:54:35 10° ENE visible
16 Mar 5.4 22:00:43 10° WNW 22:08:21 81° NNE 22:13:32 24° ESE visible
